Regional Weather Roundup
Issued by NWS Kansas City/Pleasant Hill, MO

Home | Current Version | Previous Version | Text Only | Print | Product List | Glossary On
Versions: 1 2 3 4 5 6 7 8 9 10 11 12 13 14 15 16 17 18 19 20 21 22 23 24 25 26 27 28 29 30 31 32 33 34 35 36 37 38 39 40 41 42 43 44 45 46 47 48 49 50
000
ASUS43 KEAX 191810
RWREAX

WEATHER ROUNDUP FOR EASTERN KANSAS AND NORTHWEST MISSOURI
NATIONAL WEATHER SERVICE KANSAS CITY/PLEASANT HILL MO
1200 PM CST FRI DEC 19 2014

KSZ040-057-103>105-MOZ028-029-037-043-191900-
...KANSAS CITY METROPOLITAN AREA...

CITY           SKY/WX    TMP DP  RH WIND       PRES   REMARKS
K.C. INTL      LGT SNOW  31  29  92 SE6       30.27F FOG     WCI  25
6HR MIN TEMP:  30; 6HR MAX TEMP:  31; 6HR PCP: TRACE;

K.C. DOWNTOWN  CLOUDY    33  29  85 SW3       30.28F FOG
6HR MIN TEMP:  32; 6HR MAX TEMP:  33;

LEES SUMMIT    CLOUDY    32  30  92 CALM      30.27F
6HR MIN TEMP:  31; 6HR MAX TEMP:  33;

OLATHE - IXD   CLOUDY    32  29  88 CALM      30.26F
6HR MIN TEMP:  30; 6HR MAX TEMP:  32; 6HR PCP: TRACE;

OLATHE - OJC   CLOUDY    32  29  88 CALM      30.25F
6HR MIN TEMP:  30; 6HR MAX TEMP:  32;

LAWRENCE       CLOUDY    32  29  88 S5        30.28F FOG     WCI  27

$$

MOZ001>008-011>017-020>025-030>033-038>040-044>046-053-054-191900-
...NORTHERN AND CENTRAL MISSOURI...

CITY           SKY/WX    TMP DP  RH WIND       PRES   REMARKS
ST. JOSEPH     CLOUDY    31  29  92 S8        30.29F WCI  23
6HR MIN TEMP:  30; 6HR MAX TEMP:  31;

MOSBY          CLOUDY    32  32 100 S5        30.29F WCI  27
WARRENSBURG    CLOUDY    34  32  93 CALM      30.29R FOG
WHITEMAN AFB   CLOUDY    35  34  97 S6        30.27F FOG     WCI  30
6HR MIN TEMP:  32; 6HR MAX TEMP:  35;

CLINTON        CLOUDY    36  36 100 CALM      30.27F FOG
SEDALIA        CLOUDY    36  33  89 S5        30.28S FOG     WCI  32
6HR MIN TEMP:  33; 6HR MAX TEMP:  36;

WARSAW         NOT AVBL
MARSHALL       CLOUDY    37  36  93 S5        30.29F FOG     WCI  34
CHILLICOTHE      N/A     33  29  85 CALM      30.29F
6HR MIN TEMP:  30; 6HR MAX TEMP:  33;

MOBERLY        CLOUDY    34  28  80 CALM      30.28F HAZE
KIRKSVILLE     CLOUDY    31  28  89 SE3       30.27F FOG
6HR MIN TEMP:  29; 6HR MAX TEMP:  31;


$$

MOZ041-047>049-056>058-063>065-088>090-097-191900-
...EASTERN AND SOUTHERN MISSOURI...

CITY           SKY/WX    TMP DP  RH WIND       PRES   REMARKS
ST. LOUIS INTL CLOUDY    37  27  67 CALM      30.29F
6HR MIN TEMP:  32; 6HR MAX TEMP:  37;

SPIRIT OF STL  CLOUDY    36  28  73 CALM      30.28F
COLUMBIA       CLOUDY    36  31  82 SE6       30.27F WCI  31
JEFFERSON CITY CLOUDY    37  31  78 S6        30.30R WCI  32
HANNIBAL       CLOUDY    34  27  75 E3        30.28F
ROLLA          CLOUDY    34  31  88 SE5       30.25R WCI  30
LEBANON        CLOUDY    36  34  93 SE3       30.24F
OSAGE BEACH    CLOUDY    37  32  81 CALM      30.27S
SPRINGFIELD    CLOUDY    39  36  89 S7        30.23F WCI  34
BRANSON        FOG       37  37 100 SE6       30.25S VSB 1   WCI  33
JOPLIN         FOG       37  37 100 CALM      30.24F VSB 1/4
WEST PLAINS    CLOUDY    34  32  92 SE5       30.27R WCI  30

$$

IAZ060-094-KSZ022-034>040-054-083-096-NEZ052-066-093-191900-
...KANSAS...SOUTHEAST NEBRASKA AND IOWA...

CITY           SKY/WX    TMP DP  RH WIND       PRES   REMARKS
TOPEKA         CLOUDY    32  29  88 SW5       30.28F WCI  27
6HR MIN TEMP:  30; 6HR MAX TEMP:  32;

MANHATTAN      CLOUDY    31  31 100 SW6       30.26F FOG     WCI  25
EMPORIA        CLOUDY    31  28  89 CALM      30.25F
CHANUTE        CLOUDY    35  33  92 NW5       30.26F FOG     WCI  31
WICHITA        CLOUDY    34  30  85 CALM      30.24F
OMAHA          CLOUDY    34  29  82 S9        30.22F HAZE    WCI  27
LINCOLN        CLOUDY    34  28  79 S9        30.21F WCI  27
FALLS CITY     CLOUDY    29  25  85 S10       30.26F WCI  20
LAMONI         CLOUDY    31  28  89 S6        30.24F FOG     WCI  25
DES MOINES     CLOUDY    32  27  81 S8        30.25F WCI  25

$$




USA.gov is the U.S. government's official web portal to all federal, state and local government web resources and services.